Weather History for Mount Werner, CO

Change the Weather History Date:

Sunday, September 23, 2012

  Actual Average Record
Temperature  
Mean Temperature 57 °F -  
Max Temperature 64 °F - - ()
Min Temperature 50 °F - - ()
Degree Days  
Heating Degree Days 8    
Growing Degree Days 7 (Base 50)    
Moisture  
Dew Point 3 °F    
Average Humidity 15    
Maximum Humidity 47    
Minimum Humidity 4    
Precipitation  
Precipitation 0.00 in - - ()
Sea Level Pressure  
Sea Level Pressure 30.37 in    
Wind  
Wind Speed 9 mph (SW)    
Max Wind Speed 20 mph    
Max Gust Speed 32 mph    
Visibility 10 miles    
Events Rain    
T = Trace of Precipitation, MM = Missing Value Source: NWS Daily Summary

Daily Weather History Graph

Daily Weather History Graph

Search for Another Location

Airport:

Trip Planner

Search our weather history database for the weather conditions in past years. The results will help you decide how hot, cold, wet, or windy it might be!

Date:

Astronomy

Sep. 23, 2012 Rise Set
Actual Time 6:56 AM MDT 7:01 PM MDT
Civil Twilight 6:28 AM MDT 7:28 PM MDT
Nautical Twilight 5:57 AM MDT 8:00 PM MDT
Astronomical Twilight 5:24 AM MDT 8:32 PM MDT
Moon 3:06 PM MDT (9/23) 12:10 AM MDT (9/23)
Length of Visible Light 12h 59m
Length of Day
12h 05m
First Quarter, 60% of the Moon is Illuminated
Sep 23
First Quarter
Sep 29
Full
Oct 8
Last Quarter
Oct 15
New
Oct 21
First Quarter

Hourly Weather History & Observations

Time (MDT) Temp. Dew Point Humidity Pressure Visibility Wind Dir Wind Speed Gust Speed Precip Events Conditions
12:14 AM 55.4 °F -9.4 °F 7% 30.38 in 10.0 mi West 5.8 mph - N/A   Clear
12:34 AM 53.6 °F -9.4 °F 7% 30.38 in 10.0 mi WSW 8.1 mph - N/A   Clear
12:54 AM 55.4 °F -9.4 °F 7% 30.38 in 10.0 mi SSW 9.2 mph - N/A   Clear
1:14 AM 55.4 °F -9.4 °F 7% 30.37 in 10.0 mi South 8.1 mph - N/A   Clear
1:34 AM 53.6 °F -9.4 °F 7% 30.37 in 10.0 mi SSW 8.1 mph - N/A   Clear
1:54 AM 53.6 °F -9.4 °F 7% 30.37 in 10.0 mi South 8.1 mph - N/A   Clear
2:14 AM 53.6 °F -5.8 °F 9% 30.37 in 10.0 mi South 9.2 mph - N/A   Clear
2:34 AM 53.6 °F -7.6 °F 8% 30.37 in 10.0 mi South 10.4 mph - N/A   Clear
2:54 AM 53.6 °F -7.6 °F 8% 30.37 in 10.0 mi SSW 11.5 mph - N/A   Clear
3:14 AM 53.6 °F -5.8 °F 9% 30.36 in 10.0 mi SW 12.7 mph - N/A   Clear
3:34 AM 53.6 °F -5.8 °F 9% 30.36 in 10.0 mi SW 11.5 mph - N/A   Clear
3:54 AM 53.6 °F -5.8 °F 9% 30.36 in 10.0 mi SSW 10.4 mph - N/A   Clear
4:14 AM 51.8 °F -4.0 °F 10% 30.36 in 10.0 mi SSW 9.2 mph - N/A   Clear
4:34 AM 51.8 °F -4.0 °F 10% 30.36 in 10.0 mi SW 10.4 mph - N/A   Clear
4:54 AM 51.8 °F -4.0 °F 10% 30.36 in 10.0 mi WSW 8.1 mph - N/A   Clear
5:14 AM 51.8 °F -4.0 °F 10% 30.36 in 10.0 mi SW 8.1 mph - N/A   Clear
5:34 AM 51.8 °F -5.8 °F 9% 30.36 in 10.0 mi WSW 6.9 mph - N/A   Clear
5:54 AM 51.8 °F -5.8 °F 9% 30.36 in 10.0 mi WSW 6.9 mph - N/A   Clear
6:14 AM 51.8 °F -7.6 °F 8% 30.37 in 10.0 mi SW 5.8 mph - N/A   Clear
6:34 AM 51.8 °F -7.6 °F 8% 30.37 in 10.0 mi SSW 6.9 mph - N/A   Clear
6:54 AM 51.8 °F -7.6 °F 8% 30.37 in 10.0 mi SW 6.9 mph - N/A   Clear
7:14 AM 51.8 °F -5.8 °F 9% 30.38 in 10.0 mi South 5.8 mph - N/A   Clear
7:34 AM 51.8 °F -5.8 °F 9% 30.38 in 10.0 mi South 5.8 mph - N/A   Clear
7:54 AM 51.8 °F -7.6 °F 8% 30.38 in 10.0 mi South 9.2 mph - N/A   Clear
8:14 AM 53.6 °F -7.6 °F 8% 30.38 in 10.0 mi SSE 8.1 mph - N/A   Clear
8:34 AM 53.6 °F -7.6 °F 8% 30.39 in 10.0 mi SSE 8.1 mph - N/A   Clear
8:54 AM 55.4 °F -9.4 °F 7% 30.39 in 10.0 mi South 6.9 mph - N/A   Clear
9:14 AM 55.4 °F -13.0 °F 6% 30.40 in 10.0 mi South 8.1 mph - N/A   Clear
9:34 AM 57.2 °F -13.0 °F 5% 30.40 in 10.0 mi South 8.1 mph - N/A   Clear
9:54 AM 57.2 °F -14.8 °F 5% 30.40 in 10.0 mi SSE 6.9 mph - N/A   Clear
10:14 AM 57.2 °F -14.8 °F 5% 30.40 in 10.0 mi SSW 9.2 mph - N/A   Clear
10:34 AM 59.0 °F -13.0 °F 5% 30.40 in 10.0 mi SSW 8.1 mph - N/A   Clear
10:54 AM 59.0 °F -13.0 °F 5% 30.40 in 10.0 mi WSW 6.9 mph - N/A   Clear
11:14 AM 60.8 °F -13.0 °F 5% 30.40 in 10.0 mi SW 8.1 mph - N/A   Clear
11:34 AM 62.6 °F -14.8 °F 4% 30.40 in 10.0 mi SW 9.2 mph - N/A   Clear
11:54 AM 62.6 °F -14.8 °F 4% 30.40 in 10.0 mi WSW 8.1 mph - N/A   Clear
12:14 PM 62.6 °F -5.8 °F 6% 30.40 in 10.0 mi West 6.9 mph 16.1 mph N/A   Clear
12:34 PM 60.8 °F -4.0 °F 7% 30.39 in 10.0 mi West 12.7 mph 23.0 mph N/A   Clear
12:54 PM 64.4 °F -7.6 °F 5% 30.39 in 10.0 mi WSW 8.1 mph - N/A   Clear
1:14 PM 62.6 °F -4.0 °F 7% 30.39 in 10.0 mi WSW 10.4 mph 20.7 mph N/A   Mostly Cloudy
1:34 PM 60.8 °F 6.8 °F 12% 30.38 in 10.0 mi West 12.7 mph 23.0 mph N/A   Overcast
1:54 PM 59.0 °F 10.4 °F 15% 30.37 in 10.0 mi West 13.8 mph 32.2 mph N/A   Overcast
2:14 PM 60.8 °F 6.8 °F 12% 30.37 in 10.0 mi SSW 13.8 mph 20.7 mph N/A   Mostly Cloudy
2:34 PM 60.8 °F 8.6 °F 13% 30.37 in 10.0 mi SW 9.2 mph 24.2 mph N/A   Mostly Cloudy
2:54 PM 60.8 °F 8.6 °F 13% 30.36 in 10.0 mi WSW 11.5 mph 19.6 mph N/A   Overcast
3:14 PM 59.0 °F 10.4 °F 15% 30.36 in 10.0 mi West 9.2 mph - N/A   Overcast
3:34 PM 59.0 °F 8.6 °F 14% 30.36 in 10.0 mi SW 5.8 mph - N/A   Overcast
3:54 PM 60.8 °F 8.6 °F 13% 30.35 in 10.0 mi West 4.6 mph - N/A   Overcast
4:14 PM 62.6 °F 5.0 °F 10% 30.34 in 10.0 mi WSW 12.7 mph 25.3 mph N/A   Overcast
4:34 PM 60.8 °F 8.6 °F 13% 30.35 in 10.0 mi SW 12.7 mph 24.2 mph N/A   Overcast
4:54 PM 59.0 °F 12.2 °F 16% 30.35 in 10.0 mi SW 13.8 mph 21.9 mph N/A   Overcast
5:14 PM 59.0 °F 14.0 °F 17% 30.35 in 10.0 mi SW 16.1 mph 23.0 mph N/A   Overcast
5:34 PM 57.2 °F 15.8 °F 20% 30.35 in 10.0 mi SW 12.7 mph 18.4 mph N/A   Overcast
5:54 PM 57.2 °F 17.6 °F 21% 30.36 in 10.0 mi SSW 11.5 mph 18.4 mph N/A   Overcast
6:14 PM 55.4 °F 17.6 °F 23% 30.35 in 10.0 mi SSW 11.5 mph 17.3 mph N/A   Overcast
6:34 PM 55.4 °F 17.6 °F 23% 30.35 in 10.0 mi SSW 10.4 mph - N/A   Overcast
6:54 PM 55.4 °F 17.6 °F 23% 30.36 in 10.0 mi SSW 11.5 mph 16.1 mph N/A   Overcast
7:14 PM 55.4 °F 17.6 °F 23% 30.35 in 10.0 mi South 9.2 mph - N/A   Overcast
7:34 PM 55.4 °F 19.4 °F 25% 30.35 in 10.0 mi SSW 9.2 mph - N/A   Overcast
7:54 PM 55.4 °F 19.4 °F 25% 30.35 in 10.0 mi SSE 9.2 mph - N/A   Overcast
8:14 PM 55.4 °F 19.4 °F 25% 30.36 in 10.0 mi South 10.4 mph 16.1 mph N/A   Overcast
8:34 PM 55.4 °F 21.2 °F 26% 30.37 in 10.0 mi South 16.1 mph 28.8 mph N/A   Overcast
8:54 PM 53.6 °F 23.0 °F 30% 30.37 in 10.0 mi SW 9.2 mph - N/A   Overcast
9:14 PM 53.6 °F 24.8 °F 33% 30.37 in 10.0 mi South 10.4 mph 31.1 mph N/A   Drizzle
9:34 PM 51.8 °F 26.6 °F 38% 30.37 in 10.0 mi South 16.1 mph 25.3 mph N/A   Overcast
9:54 PM 51.8 °F 24.8 °F 35% 30.36 in 10.0 mi South 12.7 mph - N/A   Overcast
10:14 PM 51.8 °F 28.4 °F 41% 30.35 in 10.0 mi SE 19.6 mph - N/A   Overcast
10:34 PM 51.8 °F 28.4 °F 41% 30.36 in 10.0 mi WSW 18.4 mph 29.9 mph N/A   Overcast
10:54 PM 50.0 °F 28.4 °F 43% 30.35 in 10.0 mi West 15.0 mph 29.9 mph N/A Rain Light Rain
11:14 PM 50.0 °F 30.2 °F 47% 30.35 in 10.0 mi West 9.2 mph 25.3 mph N/A   Overcast
11:34 PM 50.0 °F 28.4 °F 43% 30.34 in 10.0 mi WSW 16.1 mph 24.2 mph N/A   Overcast
11:54 PM 50.0 °F 30.2 °F 47% 30.35 in 10.0 mi South 9.2 mph 18.4 mph N/A   Overcast